Location: *
(31.9333°N, 34.8833°E)
Time: 14:08:36
(UTC+00:00)

Daily predictions for brighter satellites

Satellite Brightness Start Highest point End
(mag) Time Altitude Azimuth Time Altitude Azimuth Time Altitude Azimuth
CZ-4 R/B 1.3 16:15:19 10° SSE 16:19:13 87° WSW 16:23:05 10° NNW
Cosmos 1271 Rocket 2.6 16:16:30 10° N 16:20:15 80° E 16:23:58 10° S
Ariane Rocket 4.2 16:17:08 10° ESE 16:21:01 23° ENE 16:24:55 10° NNE
In-Cosmos 22 4.2 16:15:55 10° N 16:21:33 89° E 16:27:00 10° S
Meteor 1-22 Rocket 4.4 16:17:43 10° SSE 16:22:46 45° E 16:27:46 10° NNE
Cosmos 1553 Rocket 4.0 16:16:58 10° S 16:23:02 86° E 16:29:08 10° N
Cosmos 1733 3.5 16:24:27 10° SSE 16:28:02 44° E 16:31:38 10° NNE
SL-08 R/B 4.5 16:25:29 10° N 16:31:40 72° E 16:37:54 10° SSE
Cosmos 1939 Rocket 3.2 16:33:41 10° S 16:37:39 68° W 16:41:35 10° NNW
Cosmos 2315 Rocket 4.5 16:33:24 10° SSE 16:39:04 37° E 16:44:49 10° NNE
Cosmos 1674 2.6 16:35:49 10° N 16:39:31 65° E 16:43:12 10° SSE
DELTA 2 R/B (1) 4.4 16:39:06 10° WNW 16:44:24 47° SW 16:49:44 10° SE
Meteor 2-8 Rocket 4.4 16:38:48 10° S 16:44:54 70° E 16:51:00 10° NNE
KORONAS-FOTON 3.7 16:42:28 10° N 16:46:17 74° E 16:50:02 10° S
USA 234 3.2 16:41:28 10° NE 16:48:01 85° SE 16:54:34 10° SW
CZ-2D R/B 4.2 16:44:27 10° S 16:48:10 50° W 16:51:53 10° NNW
ADEOS Rocket 4.1 16:42:31 10° N 16:48:46 49° WNW 16:54:25 10° SW
Cosmos 1766 4.0 16:45:23 10° SSW 16:49:18 57° W 16:53:14 10° N
SL-14 R/B 4.3 16:46:33 10° NNE 16:50:02 27° E 16:52:38 15° SE
H-2A R/B 2.6 16:45:38 10° SE 16:50:32 38° ENE 16:55:21 10° N
SL-16 R/B 2.2 16:45:43 10° SSW 16:51:23 86° ESE 16:57:03 10° NNE
CSL-04 Rocket 4.0 16:46:41 10° S 16:51:59 68° WSW 16:57:15 10° NNW
GEOS 3 Rocket 4.2 16:47:20 10° SSE 16:52:20 59° WSW 16:57:26 10° NW
ATLAS CENTAUR Rocket 3.9 16:50:29 10° W 16:56:05 75° S 17:19:37 17° E
ATLAS CENTAUR Rocket 3.9 16:50:29 10° W 16:56:05 75° S 17:19:33 17° E
ATLAS CENTAUR Rocket 3.9 16:50:29 10° W 16:56:05 75° S 17:19:36 17° E
ATLAS CENTAUR Rocket 3.9 16:50:29 10° W 16:56:05 75° S 17:19:34 17° E
HJ-1C 3.3 16:55:36 10° S 16:58:55 86° W 17:02:16 10° NNW
OAO 2 Rocket 3.5 16:56:39 10° WNW 17:01:44 64° SSW 17:05:04 21° SE
Cosmos 1626 2.6 16:59:57 10° NNE 17:03:25 36° E 17:05:00 24° SE
Cosmos 1709 Rocket 4.0 17:04:30 10° N 17:10:33 55° E 17:16:31 10° SSE
FREGAT/IRIS 2.6 17:10:47 45° ENE 17:10:47 45° ENE 17:13:20 10° N
Cosmos 1953 3.7 17:12:00 21° ENE 17:12:00 21° ENE 17:14:01 10° NE
Cosmos 1603 4.3 17:08:27 10° SSE 17:13:21 31° ESE 17:18:14 10° NE
Atlas Centaur 2 4.3 17:11:20 10° WSW 17:13:47 13° SW 17:16:02 10° SSW
Abrixas rocket 4.2 17:12:26 10° W 17:14:54 24° NNW 17:17:24 10° NNE
Cosmos 304 Rocket 3.6 17:11:10 10° NNW 17:15:58 81° ENE 17:19:46 16° SSE
Cosmos 2251 Rocket 3.9 17:12:18 10° S 17:17:16 41° E 17:22:17 10° NNE
MONITOR-E 4.5 17:20:08 41° NNE 17:20:08 41° NNE 17:22:03 10° N
SL-24 R/B 4.0 17:17:19 10° NNE 17:21:27 48° E 17:22:55 31° SSE
Cosmos 2297 3.8 17:18:43 10° N 17:24:16 54° ENE 17:26:44 32° SE
SEDSat Delta rocket 3.1 17:22:29 10° WSW 17:27:00 55° SSE 17:27:47 47° SE
ARGOS 3.0 17:25:37 16° SSE 17:29:57 78° ENE 17:35:22 10° N
CZ-2C R/B 2.8 17:26:53 10° NNE 17:31:48 43° E 17:32:36 40° ESE
Cosmos 2278 Rocket 4.1 17:30:21 10° NW 17:35:08 29° WSW 17:39:55 10° SSW
Cosmos 1626 Rocket 3.4 17:32:20 10° N 17:36:42 72° E 17:37:34 54° SE
Delta 2 Rocket 3.8 17:34:37 10° WNW 17:39:18 69° SSW 17:40:25 51° SE
MetOp-A 4.3 17:40:03 47° ESE 17:40:51 51° ENE 17:46:01 10° N
IRIDIUM 104 4.4 17:37:48 10° N 17:42:55 53° E 17:43:11 53° E
CZ-2C R/B 3.2 17:38:34 15° S 17:42:55 71° WSW 17:47:51 10° NNW
Cosmos 1602 Rocket 3.5 17:40:17 10° N 17:44:33 66° ENE 17:44:33 66° ENE
USA 186 3.2 17:46:06 31° SW 17:47:08 40° W 17:50:23 10° NNW
MOS 1 Rocket 3.5 17:43:05 10° NNE 17:48:24 67° E 17:50:27 38° S
GOES 2 Rocket 3.8 17:44:58 10° W 17:49:06 41° S 17:49:15 41° S
SPOT 3 Rocket 3.4 17:49:10 59° SE 17:50:00 70° ENE 17:55:12 10° N
IRIDIUM 114 4.2 17:46:53 10° N 17:52:05 67° E 17:52:20 66° ESE
Cosmos 1470 4.5 17:48:48 10° SW 17:52:16 32° W 17:55:47 10° NNW
ATLAS 5 CENTAUR R/B 3.7 17:50:24 10° SW 17:56:22 38° SSE 17:58:53 35° SE
NOSS 3-3 (A) 3.8 17:51:37 10° SSW 17:57:15 80° WNW 18:03:29 10° NNE
NOSS 3-3 (C) 3.8 17:51:43 10° SSW 17:57:21 81° WNW 18:03:35 10° NNE
IRIDIUM 103 4.1 17:56:01 10° N 18:01:15 84° E 18:01:29 80° SE
SJ-6B 3.8 18:00:39 40° SW 18:01:21 45° W 18:05:17 10° NNW
Cosmos 2369 Rocket 3.3 17:57:41 10° N 18:01:25 29° NE 18:01:25 29° NE
Cosmos 2184 Rocket 4.0 18:09:03 10° N 18:14:49 66° NE 18:14:49 66° NE
Cosmos 1943 3.8 18:12:19 10° SSW 18:19:43 46° NNE 18:23:39 10° NNE
Meteor 2-10 4.4 18:19:53 55° WSW 18:20:41 62° W 18:26:05 10° N
Meteor 1-21 Rocket 4.3 18:18:32 10° NNW 18:23:39 70° WNW 18:23:39 70° WNW
Cosmos 1943 Rocket 2.7 18:18:58 10° NNW 18:23:02 48° N 18:23:02 48° N
ATLAS 2AS CENTAUR R/B 4.5 18:22:29 10° N 18:26:55 18° NE 18:26:55 18° NE
H-2A R/B 4.3 18:26:00 10° SW 18:29:57 21° W 18:33:52 10° NW
Resurs 01 Rocket 3.7 18:38:54 23° NNW 18:38:54 23° NNW 18:40:38 10° NNW
Nadezhda 1 Rocket 4.4 18:45:15 61° NW 18:45:15 61° NW 18:50:45 10° N
CZ-3A R/B 4.4 18:50:26 10° W 19:00:42 24° SW 19:00:42 24° SW
